| time (UTC) | temp C | wind direction | speed KPH | gust KPH | rain 1hr cm | rain 24hr cm | rain mn cm | humidity % | barometer mb |
| 20260507000850 | 23 | 172 | 0.0 | 0.0 | 0.00 | 0.00 | 0.00 | 47 | 1015.5 |
| 20260507000345 | 24 | 193 | 1.6 | 1.6 | 0.00 | 0.00 | 0.00 | 45 | 1015.6 |
| 20260506235841 | 24 | 208 | 0.0 | 0.0 | 0.00 | 0.00 | 0.00 | 45 | 1015.4 |
| 20260506235338 | 24 | 212 | 1.6 | 1.6 | 0.00 | 0.00 | 0.00 | 45 | 1015.5 |
| 20260506234834 | 24 | 174 | 0.0 | 1.6 | 0.00 | 0.00 | 0.00 | 45 | 1015.5 |
| 20260506234332 | 25 | 175 | 0.0 | 0.0 | 0.00 | 0.00 | 0.00 | 45 | 1015.5 |
| 20260506233830 | 25 | 173 | 1.6 | 1.6 | 0.00 | 0.00 | 0.00 | 44 | 1015.4 |
| 20260506233325 | 25 | 163 | 0.0 | 1.6 | 0.00 | 0.00 | 0.00 | 44 | 1015.4 |
| 20260506232823 | 25 | 187 | 0.0 | 1.6 | 0.00 | 0.00 | 0.00 | 44 | 1015.5 |
| 20260506232318 | 25 | 181 | 3.2 | 3.2 | 0.00 | 0.00 | 0.00 | 42 | 1015.3 |
| 20260506231815 | 26 | 139 | 0.0 | 1.6 | 0.00 | 0.00 | 0.00 | 42 | 1015.5 |
| 20260506231313 | 26 | 185 | 0.0 | 1.6 | 0.00 | 0.00 | 0.00 | 42 | 1015.7 |
| 20260506230810 | 26 | 203 | 1.6 | 1.6 | 0.00 | 0.00 | 0.00 | 41 | 1015.6 |
| 20260506230306 | 27 | 232 | 1.6 | 1.6 | 0.00 | 0.00 | 0.00 | 40 | 1015.7 |
| 20260506225803 | 28 | 239 | 1.6 | 1.6 | 0.00 | 0.00 | 0.00 | 37 | 1015.6 |
| 20260506225300 | 30 | 119 | 1.6 | 1.6 | 0.00 | 0.00 | 0.00 | 35 | 1015.7 |
| 20260506224756 | 31 | 228 | 0.0 | 0.0 | 0.00 | 0.00 | 0.00 | 33 | 1015.6 |
| 20260506224254 | 31 | 165 | 0.0 | 0.0 | 0.00 | 0.00 | 0.00 | 31 | 1015.8 |
| 20260506223750 | 31 | 131 | 0.0 | 0.0 | 0.00 | 0.00 | 0.00 | 31 | 1015.8 |
| 20260506223246 | 31 | 170 | 1.6 | 3.2 | 0.00 | 0.00 | 0.00 | 31 | 1015.8 |
| 20260506222743 | 32 | 238 | 3.2 | 3.2 | 0.00 | 0.00 | 0.00 | 31 | 1015.9 |
| 20260506222239 | 31 | 172 | 1.6 | 1.6 | 0.00 | 0.00 | 0.00 | 30 | 1015.9 |
| 20260506221737 | 32 | 46 | 1.6 | 1.6 | 0.00 | 0.00 | 0.00 | 30 | 1016.0 |
| 20260506221234 | 32 | 227 | 3.2 | 3.2 | 0.00 | 0.00 | 0.00 | 29 | 1015.9 |
| 20260506220731 | 32 | 148 | 1.6 | 1.6 | 0.00 | 0.00 | 0.00 | 31 | 1016.1 |
| 20260506220226 | 32 | 209 | 1.6 | 1.6 | 0.00 | 0.00 | 0.00 | 30 | 1016.3 |
| 20260506215723 | 31 | 162 | 1.6 | 1.6 | 0.00 | 0.00 | 0.00 | 30 | 1016.3 |
| 20260506215219 | 31 | 205 | 0.0 | 1.6 | 0.00 | 0.00 | 0.00 | 32 | 1016.5 |
| 20260506214715 | 30 | 172 | 0.0 | 0.0 | 0.00 | 0.00 | 0.00 | 33 | 1016.3 |
| 20260506214213 | 29 | 215 | 1.6 | 1.6 | 0.00 | 0.00 | 0.00 | 34 | 1016.5 |
| 20260506213711 | 30 | 191 | 1.6 | 3.2 | 0.00 | 0.00 | 0.00 | 32 | 1016.3 |
| 20260506213208 | 30 | 238 | 0.0 | 1.6 | 0.00 | 0.00 | 0.00 | 33 | 1016.5 |
| 20260506212705 | 29 | 165 | 1.6 | 3.2 | 0.00 | 0.00 | 0.00 | 34 | 1016.6 |
| 20260506212200 | 28 | 220 | 0.0 | 0.0 | 0.00 | 0.00 | 0.00 | 34 | 1016.3 |
| 20260506211656 | 29 | 210 | 1.6 | 1.6 | 0.00 | 0.00 | 0.00 | 33 | 1016.5 |
| 20260506211152 | 28 | 53 | 1.6 | 1.6 | 0.00 | 0.00 | 0.00 | 34 | 1016.6 |
| 20260506210649 | 28 | 217 | 1.6 | 1.6 | 0.00 | 0.00 | 0.00 | 35 | 1016.7 |
| 20260506210146 | 28 | 260 | 3.2 | 4.8 | 0.00 | 0.00 | 0.00 | 34 | 1016.8 |
| 20260506205644 | 28 | 245 | 1.6 | 1.6 | 0.00 | 0.00 | 0.00 | 35 | 1016.4 |
| 20260506205138 | 28 | 211 | 1.6 | 1.6 | 0.00 | 0.00 | 0.00 | 36 | 1016.6 |
| 20260506204636 | 28 | 355 | 3.2 | 3.2 | 0.00 | 0.00 | 0.00 | 35 | 1016.8 |
| 20260506204133 | 29 | 287 | 1.6 | 1.6 | 0.00 | 0.00 | 0.00 | 35 | 1016.8 |
| 20260506203631 | 30 | 250 | 3.2 | 3.2 | 0.00 | 0.00 | 0.00 | 34 | 1016.9 |
| 20260506203127 | 30 | 254 | 1.6 | 1.6 | 0.00 | 0.00 | 0.00 | 34 | 1016.9 |
| 20260506202626 | 30 | 230 | 1.6 | 3.2 | 0.00 | 0.00 | 0.00 | 33 | 1017.0 |
| 20260506202121 | 31 | 225 | 1.6 | 1.6 | 0.00 | 0.00 | 0.00 | 31 | 1017.1 |
| 20260506201619 | 31 | 227 | 0.0 | 1.6 | 0.00 | 0.00 | 0.00 | 31 | 1017.2 |
| 20260506201115 | 31 | 224 | 0.0 | 0.0 | 0.00 | 0.00 | 0.00 | 32 | 1017.1 |
| 20260506200612 | 30 | 192 | 0.0 | 0.0 | 0.00 | 0.00 | 0.00 | 31 | 1017.1 |
| 20260506200109 | 29 | 193 | 1.6 | 1.6 | 0.00 | 0.00 | 0.00 | 34 | 1017.2 |
| 20260506195605 | 29 | 246 | 1.6 | 1.6 | 0.00 | 0.00 | 0.00 | 34 | 1017.4 |
| 20260506195102 | 30 | 272 | 1.6 | 1.6 | 0.00 | 0.00 | 0.00 | 33 | 1017.4 |
| 20260506194559 | 30 | 243 | 0.0 | 0.0 | 0.00 | 0.00 | 0.00 | 33 | 1017.2 |
| 20260506194055 | 30 | 242 | 0.0 | 0.0 | 0.00 | 0.00 | 0.00 | 33 | 1017.5 |
| 20260506193553 | 30 | 244 | 1.6 | 1.6 | 0.00 | 0.00 | 0.00 | 33 | 1017.5 |
| 20260506193050 | 30 | 202 | 1.6 | 1.6 | 0.00 | 0.00 | 0.00 | 33 | 1017.8 |
| 20260506192547 | 28 | 214 | 0.0 | 0.0 | 0.00 | 0.00 | 0.00 | 34 | 1017.7 |
| 20260506192043 | 28 | 232 | 1.6 | 1.6 | 0.00 | 0.00 | 0.00 | 35 | 1017.7 |
| 20260506191540 | 30 | 242 | 4.8 | 6.4 | 0.00 | 0.00 | 0.00 | 33 | 1017.8 |
| 20260506191035 | 32 | 161 | 1.6 | 0.0 | 0.00 | 0.00 | 0.00 | 30 | 1017.9 |
| 20260506190533 | 32 | 135 | 1.6 | 1.6 | 0.00 | 0.00 | 0.00 | 28 | 1017.9 |
| 20260506190030 | 32 | 130 | 1.6 | 1.6 | 0.00 | 0.00 | 0.00 | 27 | 1017.8 |
| 20260506185527 | 32 | 238 | 1.6 | 1.6 | 0.00 | 0.00 | 0.00 | 28 | 1017.9 |
| 20260506185024 | 31 | 237 | 0.0 | 0.0 | 0.00 | 0.00 | 0.00 | 29 | 1017.8 |
| 20260506184521 | 30 | 238 | 1.6 | 1.6 | 0.00 | 0.00 | 0.00 | 31 | 1018.0 |
| 20260506184018 | 29 | 238 | 1.6 | 1.6 | 0.00 | 0.00 | 0.00 | 32 | 1018.1 |
| 20260506183514 | 28 | 237 | 0.0 | 0.0 | 0.00 | 0.00 | 0.00 | 34 | 1018.1 |
| 20260506183011 | 30 | 222 | 0.0 | 0.0 | 0.00 | 0.00 | 0.00 | 31 | 1018.3 |
| 20260506182508 | 31 | 151 | 0.0 | 0.0 | 0.00 | 0.00 | 0.00 | 31 | 1018.3 |
| 20260506182005 | 30 | 166 | 0.0 | 0.0 | 0.00 | 0.00 | 0.00 | 32 | 1018.2 |
| 20260506181503 | 28 | 234 | 0.0 | 0.0 | 0.00 | 0.00 | 0.00 | 34 | 1018.4 |
| 20260506181000 | 28 | 235 | 0.0 | 1.6 | 0.00 | 0.00 | 0.00 | 35 | 1018.4 |
| 20260506180456 | 27 | 237 | 1.6 | 1.6 | 0.00 | 0.00 | 0.00 | 36 | 1018.3 |
| 20260506175953 | 28 | 230 | 1.6 | 3.2 | 0.00 | 0.00 | 0.00 | 34 | 1018.2 |
| 20260506175449 | 28 | 203 | 0.0 | 1.6 | 0.00 | 0.00 | 0.00 | 34 | 1018.3 |
| 20260506174946 | 29 | 182 | 1.6 | 1.6 | 0.00 | 0.00 | 0.00 | 32 | 1018.3 |
| 20260506174444 | 29 | 177 | 1.6 | 1.6 | 0.00 | 0.00 | 0.00 | 33 | 1018.2 |
| 20260506173940 | 28 | 175 | 1.6 | 1.6 | 0.00 | 0.00 | 0.00 | 33 | 1018.6 |
| 20260506173438 | 26 | 237 | 0.0 | 0.0 | 0.00 | 0.00 | 0.00 | 38 | 1018.6 |
| 20260506172934 | 27 | 236 | 1.6 | 1.6 | 0.00 | 0.00 | 0.00 | 38 | 1018.4 |
| 20260506172432 | 27 | 245 | 1.6 | 1.6 | 0.00 | 0.00 | 0.00 | 37 | 1018.5 |
| 20260506171928 | 26 | 230 | 0.0 | 0.0 | 0.00 | 0.00 | 0.00 | 39 | 1018.4 |
| 20260506171426 | 26 | 98 | 1.6 | 1.6 | 0.00 | 0.00 | 0.00 | 41 | 1018.3 |
| 20260506170924 | 26 | 61 | 1.6 | 1.6 | 0.00 | 0.00 | 0.00 | 40 | 1018.3 |
| 20260506170419 | 26 | 124 | 1.6 | 1.6 | 0.00 | 0.00 | 0.00 | 39 | 1018.4 |
| 20260506165919 | 27 | 129 | 1.6 | 0.0 | 0.00 | 0.00 | 0.00 | 38 | 1018.4 |
| 20260506165417 | 27 | 98 | 0.0 | 1.6 | 0.00 | 0.00 | 0.00 | 38 | 1018.4 |
| 20260506164912 | 27 | 98 | 1.6 | 1.6 | 0.00 | 0.00 | 0.00 | 39 | 1018.4 |
| 20260506164409 | 26 | 240 | 0.0 | 1.6 | 0.00 | 0.00 | 0.00 | 40 | 1018.3 |
| 20260506163908 | 26 | 243 | 1.6 | 1.6 | 0.00 | 0.00 | 0.00 | 39 | 1018.4 |
| 20260506163401 | 24 | 83 | 0.0 | 0.0 | 0.00 | 0.00 | 0.00 | 45 | 1018.3 |
| 20260506162856 | 23 | 69 | 1.6 | 1.6 | 0.00 | 0.00 | 0.00 | 46 | 1018.4 |
| 20260506162355 | 23 | 104 | 0.0 | 1.6 | 0.00 | 0.00 | 0.00 | 48 | 1018.4 |
| 20260506161852 | 23 | 63 | 3.2 | 3.2 | 0.00 | 0.00 | 0.00 | 47 | 1018.3 |
| 20260506161349 | 25 | 98 | 3.2 | 3.2 | 0.00 | 0.00 | 0.00 | 46 | 1018.3 |
| 20260506160847 | 23 | 183 | 0.0 | 0.0 | 0.00 | 0.00 | 0.00 | 48 | 1018.4 |
| 20260506160343 | 23 | 183 | 0.0 | 0.0 | 0.00 | 0.00 | 0.00 | 50 | 1018.4 |
| 20260506155842 | 22 | 165 | 0.0 | 0.0 | 0.00 | 0.00 | 0.00 | 52 | 1018.5 |
| 20260506155338 | 23 | 165 | 1.6 | 1.6 | 0.00 | 0.00 | 0.00 | 48 | 1018.5 |
| 20260506153450 | 22 | 91 | 0.0 | 0.0 | 0.00 | 0.00 | 0.00 | 53 | 1018.4 |
| 20260506152948 | 22 | 91 | 0.0 | 0.0 | 0.00 | 0.00 | 0.00 | 55 | 1018.5 |
| 20260506152444 | 21 | 96 | 0.0 | 0.0 | 0.00 | 0.00 | 0.00 | 58 | 1018.5 |
| 20260506151943 | 20 | 60 | 0.0 | 0.0 | 0.00 | 0.00 | 0.00 | 61 | 1018.4 |
| 20260506151440 | 19 | 76 | 0.0 | 0.0 | 0.00 | 0.00 | 0.00 | 64 | 1018.6 |
| 20260506150937 | 18 | 75 | 0.0 | 0.0 | 0.00 | 0.00 | 0.00 | 67 | 1018.6 |
| 20260506150433 | 17 | 76 | 0.0 | 0.0 | 0.00 | 0.00 | 0.00 | 69 | 1018.5 |
| 20260506145931 | 17 | 77 | 0.0 | 1.6 | 0.00 | 0.00 | 0.00 | 71 | 1018.5 |
| 20260506145427 | 17 | 76 | 0.0 | 1.6 | 0.00 | 0.00 | 0.00 | 73 | 1018.6 |
| 20260506144924 | 16 | 69 | 0.0 | 1.6 | 0.00 | 0.00 | 0.00 | 74 | 1018.6 |
| 20260506144421 | 16 | 122 | 0.0 | 0.0 | 0.00 | 0.00 | 0.00 | 76 | 1018.4 |
| 20260506143919 | 15 | 76 | 0.0 | 0.0 | 0.00 | 0.00 | 0.00 | 78 | 1018.3 |
| 20260506143416 | 15 | 92 | 0.0 | 1.6 | 0.00 | 0.00 | 0.00 | 79 | 1018.4 |
| 20260506142914 | 15 | 98 | 0.0 | 0.0 | 0.00 | 0.00 | 0.00 | 81 | 1018.5 |
| 20260506142412 | 15 | 109 | 1.6 | 1.6 | 0.00 | 0.00 | 0.00 | 82 | 1018.5 |
| 20260506141910 | 14 | 191 | 0.0 | 0.0 | 0.00 | 0.00 | 0.00 | 84 | 1018.6 |
| 20260506141407 | 13 | 193 | 0.0 | 1.6 | 0.00 | 0.00 | 0.00 | 85 | 1018.3 |
| 20260506140906 | 13 | 193 | 0.0 | 0.0 | 0.00 | 0.00 | 0.00 | 87 | 1018.2 |
| 20260506140402 | 12 | 193 | 0.0 | 0.0 | 0.00 | 0.00 | 0.00 | 90 | 1018.0 |
| 20260506135859 | 12 | 193 | 0.0 | 0.0 | 0.00 | 0.00 | 0.00 | 91 | 1018.1 |
| 20260506135356 | 12 | 193 | 0.0 | 0.0 | 0.00 | 0.00 | 0.00 | 92 | 1018.2 |
| 20260506134852 | 11 | 193 | 0.0 | 0.0 | 0.00 | 0.00 | 0.00 | 93 | 1018.2 |
| 20260506134348 | 11 | 193 | 0.0 | 0.0 | 0.00 | 0.00 | 0.00 | 94 | 1018.1 |
| 20260506133846 | 11 | 193 | 0.0 | 0.0 | 0.00 | 0.00 | 0.00 | 96 | 1018.0 |
| 20260506133342 | 11 | 193 | 0.0 | 0.0 | 0.00 | 0.00 | 0.00 | 96 | 1018.2 |
| 20260506132839 | 10 | 193 | 0.0 | 0.0 | 0.00 | 0.00 | 0.00 | 96 | 1018.0 |
| 20260506132336 | 10 | 193 | 0.0 | 0.0 | 0.00 | 0.00 | 0.00 | 95 | 1018.1 |
| 20260506131834 | 10 | 193 | 0.0 | 0.0 | 0.00 | 0.00 | 0.00 | 95 | 1017.8 |
| 20260506131330 | 10 | 193 | 0.0 | 0.0 | 0.00 | 0.00 | 0.00 | 95 | 1018.0 |
| 20260506130828 | 10 | 193 | 0.0 | 0.0 | 0.00 | 0.00 | 0.00 | 95 | 1017.8 |
| 20260506130324 | 10 | 193 | 0.0 | 0.0 | 0.00 | 0.00 | 0.00 | 95 | 1017.9 |
| 20260506125822 | 10 | 193 | 0.0 | 0.0 | 0.00 | 0.00 | 0.00 | 95 | 1017.8 |
| 20260506125320 | 10 | 193 | 0.0 | 0.0 | 0.00 | 0.00 | 0.00 | 95 | 1017.8 |
| 20260506124818 | 10 | 193 | 0.0 | 0.0 | 0.00 | 0.00 | 0.00 | 95 | 1017.6 |
| 20260506124315 | 10 | 193 | 0.0 | 0.0 | 0.00 | 0.00 | 0.00 | 95 | 1017.6 |
| 20260506123812 | 10 | 193 | 0.0 | 0.0 | 0.00 | 0.00 | 0.00 | 95 | 1017.5 |
| 20260506123311 | 10 | 193 | 0.0 | 0.0 | 0.00 | 0.00 | 0.00 | 95 | 1017.2 |
| 20260506122807 | 10 | 193 | 0.0 | 0.0 | 0.00 | 0.00 | 0.00 | 94 | 1017.5 |
| 20260506122306 | 10 | 193 | 0.0 | 0.0 | 0.00 | 0.00 | 0.00 | 94 | 1017.4 |
| 20260506121803 | 10 | 193 | 0.0 | 0.0 | 0.00 | 0.00 | 0.00 | 94 | 1017.2 |
| 20260506121259 | 10 | 193 | 0.0 | 0.0 | 0.00 | 0.00 | 0.00 | 94 | 1017.4 |
| 20260506120757 | 10 | 193 | 0.0 | 0.0 | 0.00 | 0.00 | 0.00 | 94 | 1017.4 |
| 20260506120254 | 11 | 193 | 0.0 | 0.0 | 0.00 | 0.00 | 0.00 | 94 | 1017.5 |
| 20260506115752 | 11 | 193 | 0.0 | 0.0 | 0.00 | 0.00 | 0.00 | 94 | 1017.4 |
| 20260506115249 | 11 | 193 | 0.0 | 0.0 | 0.00 | 0.00 | 0.00 | 94 | 1017.2 |
| 20260506114747 | 11 | 193 | 0.0 | 0.0 | 0.00 | 0.00 | 0.00 | 94 | 1017.5 |
| 20260506114245 | 11 | 193 | 0.0 | 0.0 | 0.00 | 0.00 | 0.00 | 94 | 1017.4 |
| 20260506113743 | 11 | 193 | 0.0 | 0.0 | 0.00 | 0.00 | 0.00 | 94 | 1017.2 |
| 20260506113240 | 11 | 193 | 0.0 | 0.0 | 0.00 | 0.00 | 0.00 | 94 | 1017.2 |
| 20260506112736 | 11 | 193 | 0.0 | 0.0 | 0.00 | 0.00 | 0.00 | 94 | 1017.2 |
| 20260506112234 | 11 | 193 | 0.0 | 0.0 | 0.00 | 0.00 | 0.00 | 94 | 1017.3 |
| 20260506111731 | 11 | 193 | 0.0 | 0.0 | 0.00 | 0.00 | 0.00 | 94 | 1017.1 |
| 20260506111230 | 11 | 193 | 0.0 | 0.0 | 0.00 | 0.00 | 0.00 | 93 | 1017.3 |
| 20260506110726 | 11 | 193 | 0.0 | 0.0 | 0.00 | 0.00 | 0.00 | 93 | 1017.2 |
| 20260506110224 | 11 | 193 | 0.0 | 0.0 | 0.00 | 0.00 | 0.00 | 93 | 1017.0 |
| 20260506105720 | 11 | 193 | 0.0 | 0.0 | 0.00 | 0.00 | 0.00 | 92 | 1017.1 |
| 20260506105217 | 11 | 193 | 0.0 | 0.0 | 0.00 | 0.00 | 0.00 | 92 | 1017.2 |
| 20260506104715 | 11 | 193 | 0.0 | 0.0 | 0.00 | 0.00 | 0.00 | 92 | 1017.4 |
| 20260506104212 | 11 | 193 | 0.0 | 0.0 | 0.00 | 0.00 | 0.00 | 92 | 1017.2 |
| 20260506103709 | 11 | 193 | 0.0 | 0.0 | 0.00 | 0.00 | 0.00 | 91 | 1017.4 |
| 20260506103206 | 12 | 193 | 0.0 | 0.0 | 0.00 | 0.00 | 0.00 | 91 | 1017.1 |
| 20260506102704 | 12 | 193 | 0.0 | 0.0 | 0.00 | 0.00 | 0.00 | 91 | 1017.2 |
| 20260506102202 | 12 | 193 | 0.0 | 0.0 | 0.00 | 0.00 | 0.00 | 91 | 1017.2 |
| 20260506101658 | 12 | 193 | 0.0 | 0.0 | 0.00 | 0.00 | 0.00 | 92 | 1017.2 |
| 20260506101155 | 11 | 193 | 0.0 | 0.0 | 0.00 | 0.00 | 0.00 | 92 | 1017.1 |
| 20260506100653 | 11 | 193 | 0.0 | 0.0 | 0.00 | 0.00 | 0.00 | 90 | 1017.1 |
| 20260506100151 | 12 | 193 | 0.0 | 0.0 | 0.00 | 0.00 | 0.00 | 91 | 1017.2 |
| 20260506095650 | 12 | 193 | 0.0 | 0.0 | 0.00 | 0.00 | 0.00 | 91 | 1017.1 |
| 20260506095146 | 12 | 193 | 0.0 | 0.0 | 0.00 | 0.00 | 0.00 | 91 | 1017.2 |
| 20260506094643 | 12 | 193 | 0.0 | 0.0 | 0.00 | 0.00 | 0.00 | 92 | 1017.2 |
| 20260506094141 | 12 | 193 | 0.0 | 0.0 | 0.00 | 0.00 | 0.00 | 92 | 1017.3 |
| 20260506093639 | 12 | 193 | 0.0 | 0.0 | 0.00 | 0.00 | 0.00 | 92 | 1017.2 |
| 20260506093136 | 12 | 193 | 0.0 | 0.0 | 0.00 | 0.00 | 0.00 | 92 | 1017.3 |
| 20260506092634 | 12 | 193 | 0.0 | 0.0 | 0.00 | 0.00 | 0.00 | 92 | 1017.2 |
| 20260506092131 | 12 | 193 | 0.0 | 0.0 | 0.00 | 0.00 | 0.00 | 91 | 1017.2 |
| 20260506091629 | 12 | 193 | 0.0 | 0.0 | 0.00 | 0.00 | 0.00 | 92 | 1017.2 |
| 20260506091126 | 12 | 193 | 0.0 | 0.0 | 0.00 | 0.00 | 0.00 | 92 | 1017.2 |
| 20260506090624 | 12 | 193 | 0.0 | 0.0 | 0.00 | 0.00 | 0.00 | 90 | 1017.4 |
| 20260506090120 | 12 | 193 | 0.0 | 0.0 | 0.00 | 0.00 | 0.00 | 91 | 1017.4 |
| 20260506085617 | 12 | 193 | 0.0 | 0.0 | 0.00 | 0.00 | 0.00 | 90 | 1017.4 |
| 20260506085113 | 12 | 193 | 0.0 | 0.0 | 0.00 | 0.00 | 0.00 | 92 | 1017.3 |
| 20260506084610 | 12 | 193 | 0.0 | 0.0 | 0.00 | 0.00 | 0.00 | 91 | 1017.6 |
| 20260506084107 | 12 | 193 | 0.0 | 0.0 | 0.00 | 0.00 | 0.00 | 91 | 1017.5 |
| 20260506083604 | 12 | 193 | 0.0 | 0.0 | 0.00 | 0.00 | 0.00 | 90 | 1017.5 |
| 20260506083101 | 12 | 193 | 0.0 | 0.0 | 0.00 | 0.00 | 0.00 | 90 | 1017.6 |
| 20260506082558 | 12 | 193 | 0.0 | 0.0 | 0.00 | 0.00 | 0.00 | 89 | 1017.7 |
| 20260506082053 | 12 | 193 | 0.0 | 0.0 | 0.00 | 0.00 | 0.00 | 89 | 1017.5 |
| 20260506081552 | 12 | 193 | 0.0 | 0.0 | 0.00 | 0.00 | 0.00 | 89 | 1017.8 |
| 20260506081049 | 12 | 193 | 0.0 | 0.0 | 0.00 | 0.00 | 0.00 | 88 | 1017.7 |
| 20260506080547 | 12 | 193 | 0.0 | 0.0 | 0.00 | 0.00 | 0.00 | 87 | 1017.7 |
| 20260506073027 | 12 | 193 | 0.0 | 0.0 | 0.00 | 0.00 | 0.00 | 87 | 1017.7 |
| 20260506072524 | 12 | 193 | 0.0 | 0.0 | 0.00 | 0.00 | 0.00 | 85 | 1017.7 |
| 20260506072022 | 12 | 193 | 0.0 | 0.0 | 0.00 | 0.00 | 0.00 | 85 | 1017.7 |
| 20260506071520 | 12 | 193 | 0.0 | 0.0 | 0.00 | 0.00 | 0.00 | 83 | 1017.6 |
| 20260506071016 | 12 | 193 | 0.0 | 0.0 | 0.00 | 0.00 | 0.00 | 82 | 1017.4 |
| 20260506070514 | 12 | 193 | 0.0 | 0.0 | 0.00 | 0.00 | 0.00 | 82 | 1017.4 |
| 20260506062451 | 13 | 193 | 0.0 | 0.0 | 0.00 | 0.46 | 0.46 | 81 | 1017.2 |
| 20260506061947 | 13 | 193 | 0.0 | 0.0 | 0.00 | 0.46 | 0.46 | 81 | 1017.1 |
| 20260506061444 | 13 | 193 | 0.0 | 0.0 | 0.00 | 0.46 | 0.46 | 78 | 1017.1 |
| 20260506060942 | 13 | 193 | 0.0 | 0.0 | 0.00 | 0.46 | 0.46 | 78 | 1017.1 |
| 20260506060440 | 13 | 193 | 0.0 | 0.0 | 0.00 | 0.46 | 0.46 | 78 | 1017.0 |
| 20260506051412 | 14 | 193 | 0.0 | 0.0 | 0.00 | 0.46 | 0.46 | 75 | 1016.7 |
| 20260506050908 | 14 | 193 | 0.0 | 0.0 | 0.00 | 0.46 | 0.46 | 75 | 1016.9 |
| 20260506050406 | 14 | 193 | 0.0 | 0.0 | 0.00 | 0.46 | 0.46 | 74 | 1016.4 |
| 20260506044856 | 15 | 193 | 0.0 | 0.0 | 0.00 | 0.46 | 0.46 | 73 | 1016.4 |
| 20260506044354 | 15 | 193 | 0.0 | 0.0 | 0.00 | 0.46 | 0.46 | 73 | 1016.3 |
| 20260506043851 | 15 | 193 | 0.0 | 0.0 | 0.00 | 0.46 | 0.46 | 73 | 1016.3 |
| 20260506043348 | 15 | 193 | 0.0 | 0.0 | 0.00 | 0.46 | 0.46 | 73 | 1016.2 |
| 20260506042847 | 15 | 193 | 0.0 | 0.0 | 0.00 | 0.46 | 0.46 | 72 | 1016.1 |
| 20260506042345 | 15 | 193 | 0.0 | 0.0 | 0.00 | 0.46 | 0.46 | 71 | 1016.1 |
| 20260506041844 | 15 | 193 | 0.0 | 0.0 | 0.00 | 0.46 | 0.46 | 71 | 1016.1 |
| 20260506041341 | 15 | 193 | 0.0 | 0.0 | 0.00 | 0.46 | 0.46 | 70 | 1016.0 |
| 20260506040837 | 15 | 193 | 0.0 | 0.0 | 0.00 | 0.46 | 0.46 | 69 | 1016.1 |
| 20260506040335 | 15 | 193 | 0.0 | 0.0 | 0.00 | 0.46 | 0.46 | 68 | 1016.0 |
| 20260506035831 | 16 | 193 | 0.0 | 0.0 | 0.00 | 0.46 | 0.46 | 67 | 1015.8 |
| 20260506035329 | 16 | 193 | 0.0 | 0.0 | 0.00 | 0.46 | 0.46 | 66 | 1015.8 |
| 20260506034825 | 16 | 193 | 0.0 | 0.0 | 0.00 | 0.46 | 0.46 | 65 | 1015.8 |
| 20260506034323 | 16 | 193 | 0.0 | 0.0 | 0.00 | 0.46 | 0.46 | 65 | 1015.7 |
| 20260506033820 | 16 | 193 | 0.0 | 0.0 | 0.00 | 0.46 | 0.46 | 64 | 1015.3 |
| 20260506033317 | 16 | 193 | 0.0 | 0.0 | 0.00 | 0.46 | 0.46 | 63 | 1015.4 |
| 20260506032813 | 16 | 193 | 0.0 | 0.0 | 0.00 | 0.46 | 0.46 | 62 | 1015.4 |
| 20260506032310 | 16 | 193 | 0.0 | 0.0 | 0.00 | 0.46 | 0.46 | 62 | 1015.3 |
| 20260506031807 | 16 | 193 | 0.0 | 0.0 | 0.00 | 0.46 | 0.46 | 62 | 1015.2 |
| 20260506031304 | 16 | 193 | 0.0 | 1.6 | 0.00 | 0.46 | 0.46 | 62 | 1015.4 |
| 20260506030802 | 16 | 193 | 0.0 | 0.0 | 0.00 | 0.46 | 0.46 | 61 | 1015.1 |
| 20260506030300 | 17 | 193 | 0.0 | 0.0 | 0.00 | 0.46 | 0.46 | 59 | 1015.2 |
| 20260506025757 | 17 | 193 | 0.0 | 0.0 | 0.00 | 0.46 | 0.46 | 58 | 1015.0 |
| 20260506025253 | 17 | 193 | 0.0 | 0.0 | 0.00 | 0.46 | 0.46 | 56 | 1014.8 |
| 20260506024750 | 17 | 193 | 0.0 | 0.0 | 0.00 | 0.46 | 0.46 | 55 | 1014.8 |
| 20260506024246 | 17 | 193 | 0.0 | 0.0 | 0.00 | 0.46 | 0.46 | 53 | 1014.6 |
| 20260506023742 | 17 | 193 | 0.0 | 0.0 | 0.00 | 0.46 | 0.46 | 52 | 1014.9 |
| 20260506023240 | 17 | 150 | 1.6 | 1.6 | 0.00 | 0.46 | 0.46 | 52 | 1014.6 |
| 20260506022736 | 17 | 149 | 0.0 | 0.0 | 0.00 | 0.46 | 0.46 | 52 | 1014.3 |
| 20260506022235 | 18 | 149 | 0.0 | 0.0 | 0.00 | 0.46 | 0.46 | 52 | 1014.6 |
| 20260506021732 | 18 | 149 | 0.0 | 0.0 | 0.00 | 0.46 | 0.46 | 51 | 1014.5 |
| 20260506021229 | 18 | 148 | 0.0 | 0.0 | 0.00 | 0.46 | 0.46 | 51 | 1014.6 |
| 20260506020726 | 18 | 147 | 0.0 | 0.0 | 0.00 | 0.46 | 0.46 | 51 | 1014.4 |
| 20260506020224 | 18 | 147 | 0.0 | 0.0 | 0.00 | 0.46 | 0.46 | 50 | 1014.2 |
| 20260506015721 | 18 | 145 | 0.0 | 0.0 | 0.00 | 0.46 | 0.46 | 48 | 1014.5 |
| 20260506015345 | 18 | 145 | 1.6 | 1.6 | 0.00 | 0.46 | 0.46 | 47 | 1014.3 |
| 20260506014842 | 18 | 126 | 0.0 | 0.0 | 0.00 | 0.46 | 0.46 | 46 | 1014.2 |
| 20260506014338 | 18 | 104 | 1.6 | 1.6 | 0.13 | 0.46 | 0.46 | 46 | 1014.3 |
| 20260506013835 | 18 | 11 | 0.0 | 0.0 | 0.13 | 0.46 | 0.46 | 47 | 1014.1 |
| 20260506013333 | 19 | 258 | 0.0 | 0.0 | 0.00 | 0.43 | 0.43 | 47 | 1014.1 |
| 20260506012828 | 19 | 229 | 1.6 | 1.6 | 0.00 | 0.43 | 0.43 | 46 | 1013.9 |
| 20260506012326 | 19 | 17 | 1.6 | 1.6 | 0.00 | 0.43 | 0.43 | 47 | 1014.2 |
| 20260506011823 | 19 | 17 | 1.6 | 1.6 | 0.00 | 0.43 | 0.43 | 46 | 1014.2 |
| 20260506011320 | 19 | 351 | 0.0 | 0.0 | 0.00 | 0.43 | 0.43 | 47 | 1014.2 |
| 20260506010817 | 20 | 1 | 0.0 | 0.0 | 0.00 | 0.43 | 0.43 | 47 | 1014.3 |
| 20260506010315 | 20 | 355 | 0.0 | 0.0 | 0.00 | 0.43 | 0.43 | 46 | 1014.1 |
| 20260506005812 | 20 | 12 | 0.0 | 0.0 | 0.00 | 0.43 | 0.43 | 48 | 1014.2 |
| 20260506005309 | 20 | 13 | 0.0 | 0.0 | 0.00 | 0.43 | 0.43 | 47 | 1014.0 |
| 20260506004804 | 20 | 12 | 0.0 | 0.0 | 0.00 | 0.43 | 0.43 | 47 | 1014.3 |
| 20260506004632 | 20 | 12 | 0.0 | 0.0 | 0.00 | 0.43 | 0.43 | 47 | 1014.2 |